{"data":{"norad_id":53022,"intl_designator":"2022-076AN","name":"STARLINK-4216","alt_names":[],"object_type":"PAYLOAD","status":"ACTIVE","operator":null,"country":"US","launch_date":"2022-07-07","launch_site_code":"AFETR","launch_vehicle":null,"mission":null,"orbit_class":"UNKNOWN","rcs_meters":null,"size_class":null,"mass_kg":null,"dimensions":null,"purposes":["comms"],"wikipedia_slug":null,"has_3d_model":false,"image_url":null,"decayed_at":null,"tle_current":{"epoch":"2026-05-25T02:53:14.790048Z","epoch_age_seconds":58646,"freshness":"FRESH","line1":"1 53022U 22076AN  26145.12031007  .00000500  00000+0  49516-4 0  9994","line2":"2 53022  53.2141 101.0045 0001569  75.6864 284.4302 15.08836557214523","mean_motion":15.08836557,"eccentricity":0.0001569,"inclination_deg":53.2141,"raan_deg":101.0045,"arg_perigee_deg":75.6864,"mean_anomaly_deg":284.4302,"bstar":4.9516e-5,"rev_number":21452,"period_min":95.437772455827,"perigee_km":538.6684957735,"apogee_km":540.83932994195,"semimajor_km":6917.8909128577,"source":"CELESTRAK","updated_at":"2026-05-25T13:38:17.281247Z"}}}